Regional Weather Roundup
Issued by NWS

Home | Current Version | Previous Version | Text Only | Print | Product List | Glossary Off
Versions: 1 2 3 4 5 6 7 8 9 10 11 12 13 14 15 16 17 18 19 20 21 22 23 24 25 26 27 28 29 30 31 32 33 34 35 36 37 38 39 40 41 42 43 44 45 46 47 48 49 50

000
ASUS43 KLOT 300410
RWRIL

ILLINOIS REGIONAL WEATHER ROUNDUP
NATIONAL WEATHER SERVICE CHICAGO/ROMEOVILLE IL
1100 PM CDT FRI AUG 29 2014

NOTE: "FAIR" INDICATES FEW OR NO CLOUDS BELOW 12,000 FEET WITH NO
SIGNIFICANT WEATHER AND/OR OBSTRUCTIONS TO VISIBILITY.

* THESE STATIONS ARE NOT UNDER NWS QUALITY CONTROL. THEY ALSO MAY NOT
  REPORT WEATHER SUCH AS PRECIPITATION OR FOG.

ILZ001-002-007-009-015-016-024-300500-
NORTHWEST ILLINOIS

CITY           SKY/WX    TMP DP  RH WIND       PRES   REMARKS
MOLINE         CLOUDY    72  67  84 S9        29.82F
STERLING*      CLOUDY    72  64  78 W3        29.84S
SAVANNA*       CLOUDY    74  67  78 S9        29.82R
$$

ILZ003-004-008-010-011-017-018-300500-
NORTH CENTRAL ILLINOIS

CITY           SKY/WX    TMP DP  RH WIND       PRES   REMARKS
ROCKFORD       CLOUDY    74  70  87 S14       29.85F
FREEPORT*      MOCLDY    73  70  92 S10       29.86R
ROCHELLE*      CLOUDY    74  72  91 S14G20    29.86R
DE KALB*       CLOUDY    72  69  93 SE12      29.87S FOG
PERU*          LGT RAIN  72  67  85 S13       29.88R
$$

ILZ005-006-012>014-019>023-300500-
NORTHEAST ILLINOIS

CITY           SKY/WX    TMP DP  RH WIND       PRES   REMARKS
CHICAGO-OHARE  MOCLDY    76  67  73 S12       29.87F
CHICAGO-MIDWAY MOCLDY    78  70  76 S12       29.88F HX  80
AURORA         CLOUDY    74  70  87 SE10      29.87F
LANSING*         N/A    N/A N/A N/A MISG        N/A
JOLIET*        MOCLDY    73  68  83 S6        29.89F
WAUKEGAN       MOCLDY    76  69  79 SE10G18   29.86F
DUPAGE AIRPORT PTCLDY    75  68  78 S13       29.87F
KANKAKEE*      PTCLDY    71  69  93 SE6       29.92S
WHEELING       PTCLDY    78  69  73 S12       29.88F HX  80
MORRIS*        CLOUDY    75  71  87 S10       29.88S
ROMEOVILLE*    MOCLDY    73  70  91 S10       29.89F
NORTHERLY ISL    N/A     75  68  78 SE9         N/A
$$

LMZ740>746-300500-
SOUTHERN LAKE MICHIGAN

STATION/POSITION SKY/WX   TEMP    WIND        PRES    VSBY  WAVE
                          AIR SEA DIR/SP/G                  HT/PER
                          (F)     (DEG/KT/KT) (MB)    (MI)  (FT/S)
SOUTHERN BUOY              73 69  160/ 17/ 21 1011.8F
WAUKEGAN HARBOR            74     160/ 13/ 14   N/A
HARRISON CRIB              73     160/ 16/ 19   N/A
BURNHAM HARBOR             75     150/  9/ 14   N/A
CALUMET HARBOR             74     160/  9/ 14 1011.2F
MICHIGAN CITY              72     130/ 13/ 16   N/A
MICHIGAN CITY 6N           73 72  150/ 14/ 17   N/A           2/ 2
ST. JOSEPH                 72 70  150/ 17/ 21   N/A           2/ 2
$$

ILZ025>027-034>036-040-047-049-050-058-095>099-300500-
WEST-CENTRAL ILLINOIS

CITY           SKY/WX    TMP DP  RH WIND       PRES   REMARKS
QUINCY         CLOUDY    72  70  93 S9        29.87S
GALESBURG*     CLOUDY    69  68  96 SE6       29.85F
MACOMB*        MOCLDY    70  69  99 S6        29.88S
JACKSONVILLE*  CLOUDY    74  72  92 S5        29.90R
PITTSFIELD*    CLOUDY    73  70  91 S5        29.90S
$$

ILZ028>032-037-038-041>044-048-051>054-059>061-300500-
CENTRAL ILLINOIS

CITY           SKY/WX    TMP DP  RH WIND       PRES   REMARKS
PONTIAC        MOCLDY    75  73  94 SW7       29.91R
DECATUR        MOCLDY    77  69  76 S9        29.92R
PEORIA         CLOUDY    72  68  87 SE3       29.87F
LACON*         CLOUDY    70  67  90 SE5       29.86F
LINCOLN*       MOCLDY    73  71  93 SE3       29.86S
SPRINGFIELD    PTCLDY    74  71  91 S6        29.89R
TAYLORVILLE    PTCLDY    73  68  83 S10       29.91R
$$

ILZ033-039-045-046-055>057-062-063-300500-
EAST-CENTRAL ILLINOIS

CITY           SKY/WX    TMP DP  RH WIND       PRES   REMARKS
CHAMPAIGN      PTCLDY    73  71  93 SE8       29.93S
DANVILLE*      RAIN      70  69  95 SE5       29.92S
RANTOUL*       CLEAR     72  68  88 SE3       29.94R
MATTOON        PTCLDY    76  69  79 S7        29.94R
PARIS*         CLEAR     71  70  97 SE5       29.96S FOG
$$

ILZ079-100>102-300500-
SOUTHWEST ILLINOIS

CITY           SKY/WX    TMP DP  RH WIND       PRES   REMARKS
BELLEVILLE     CLOUDY    77  70  79 VRB5      29.92R
CAHOKIA*       CLOUDY    79  69  71 S9        29.92R HX  81
SPARTA*        CLOUDY    77  68  75 SW14G22   29.96R
$$

ILZ064>066-069>071-074>076-080>082-084>086-088>090-092>094-300500-
SOUTH-CENTRAL ILLINOIS

CITY           SKY/WX    TMP DP  RH WIND       PRES   REMARKS
CARBONDALE     CLOUDY    77  69  76 SW13      29.98R
CAIRO*         LGT RAIN  75  69  82 SW9       30.01F
EFFINGHAM*     CLOUDY    79  64  60 S7        29.94R HX  80
MARION         CLOUDY    81  70  69 SW12G20   29.99R HX  84
MT. VERNON     MOCLDY    75  66  73 S6        29.97R
CENTRALIA*     MOCLDY    75  66  73 S9        29.95S
SALEM*         MOCLDY    80  70  71 S10       29.96R HX  83
METROPOLIS*    CLOUDY    80  69  68 SW18G29   30.01R HX  83
$$

ILZ067-068-072-073-078-083-087-091-300500-
SOUTHEAST ILLINOIS

CITY           SKY/WX    TMP DP  RH WIND       PRES   REMARKS
LAWRENCEVILLE  CLEAR     74  70  87 S7        29.97R
FLORA*         CLEAR     76  69  80 S6        29.96R
FAIRFIELD*     CLOUDY    77  72  83 S5        29.96R
HARRISBURG*    CLOUDY    77  71  81 S5        29.98S
ROBINSON*      CLEAR     75  71  87 S7        29.96R
CARMI*         MOCLDY    76  71  83 S3        29.97S
$$

ABBREVIATIONS USED IN REMARKS
   TC - TEMPERATURE IN CELSIUS
  WCI - WIND CHILL INDEX
   HX - HEAT INDEX
  VSB - VISIBILITY
$$



USA.gov is the U.S. government's official web portal to all federal, state and local government web resources and services.